Date_and_time,latitude,longitude,wind_speed,RelWindDirFrom,WindDirFrom,air_pressure,air_temperature,relative_humidity,Temp,platform_speed_wrt_ground,air_pressure_at_mean_sea_level,platform_orientation
2019-09-16 00:00,50.630465,-96.98078,4.3,5.2,149,982.69,23.2,47,15.72,0.0,1008.35,38.0
2019-09-16 00:10,50.630465,-96.9807766666667,3.3,4.2,160,982.73,22.5,52,16.01,0.0,1008.43,38.0
2019-09-16 00:20,50.630425,-96.9807816666667,2.4,3.0,177,982.76,21.6,56,16.06,0.0,1008.51,38.0
2019-09-16 00:30,50.63046,-96.9807783333333,2.7,3.2,186,982.79,21.9,53,16.03,0.0,1008.50,38.0
2019-09-16 00:40,50.63048,-96.9807866666667,2.9,3.4,197,982.82,22.1,52,15.97,0.0,1008.49,38.0
2019-09-16 00:50,50.6304283333333,-96.9807566666667,3.1,3.6,213,982.84,22.2,50,15.89,0.0,1008.54,38.0
2019-09-16 01:00,50.6304683333333,-96.98077,3.1,3.8,220,982.90,22.7,46,15.81,0.0,1008.61,31.1
2019-09-16 01:10,50.6304633333333,-96.9807716666667,3.7,4.3,221,982.94,22.8,45,15.76,0.0,1008.63,31.1
2019-09-16 01:20,50.6304633333333,-96.9807733333333,3.8,4.6,229,982.98,22.6,45,15.73,0.0,1008.57,31.1
2019-09-16 01:30,50.6304633333333,-96.980775,3.7,4.4,229,983.05,22.5,44,15.74,0.0,1008.59,31.1
2019-09-16 01:40,50.630465,-96.9807783333333,3.2,3.8,229,983.15,22.4,44,15.79,0.0,1008.72,31.1
2019-09-16 01:50,50.630465,-96.9807783333333,2.2,3.0,227,983.18,22.1,45,15.92,0.0,1008.76,31.1
2019-09-16 02:00,50.630465,-96.9807783333333,1.9,2.7,232,983.22,21.8,47,15.95,0.0,1008.85,14.5
2019-09-16 02:10,50.630465,-96.9807783333333,2.5,3.3,236,983.34,21.3,49,15.94,0.0,1009.03,14.5
2019-09-16 02:20,50.6304716666667,-96.980785,3.1,4.1,217,983.45,20.7,52,15.91,0.0,1009.16,14.5
2019-09-16 02:30,50.6304666666667,-96.980775,3.3,4.3,225,983.49,20.0,54,15.86,0.0,1009.22,14.5
2019-09-16 02:40,50.63046,-96.9807733333333,3.1,3.8,222,983.58,19.9,54,15.83,0.0,1009.32,14.5
2019-09-16 02:50,50.63046,-96.980775,3.2,4.2,211,983.69,19.6,55,15.81,0.0,1009.42,14.5
2019-09-16 03:00,50.63046,-96.9807766666667,3.2,4.2,214,983.75,19.4,55,15.78,0.0,1009.49,143.4
2019-09-16 03:10,50.63046,-96.9807766666667,3.1,9.8,183,983.80,19.3,57,15.75,0.0,1009.56,143.4
2019-09-16 03:20,50.6304616666667,-96.9807783333333,2.5,4.0,171,983.94,17.9,66,15.77,0.0,1009.76,143.4
2019-09-16 03:30,50.63046,-96.9807766666667,0.2,1.5,305,983.98,18.0,65,15.84,0.0,1009.80,143.4
2019-09-16 03:40,50.6304616666667,-96.9807766666667,0.8,2.3,57,984.14,17.8,72,15.92,0.0,1009.98,143.4
2019-09-16 03:50,50.6304416666667,-96.9807816666667,0.5,2.5,40,984.23,17.5,71,16.00,0.0,1010.10,143.4
2019-09-16 04:00,50.6304866666667,-96.9807883333333,0.7,2.6,67,984.25,17.4,75,16.00,0.0,1010.15,311.6
2019-09-16 04:10,50.630455,-96.9807766666667,1.4,3.6,188,984.34,16.9,75,16.00,0.0,1010.29,311.6
2019-09-16 04:20,50.630455,-96.9807783333333,1.4,2.6,125,984.38,17.4,73,15.98,0.0,1010.34,311.6
2019-09-16 04:30,50.63046,-96.9807783333333,2.5,3.2,159,984.36,17.3,69,15.98,0.0,1010.34,311.6
2019-09-16 04:40,50.6304733333333,-96.9808066666667,2.7,3.9,158,984.35,17.9,62,15.97,0.0,1010.31,311.6
2019-09-16 04:50,50.630465,-96.98078,0.6,2.4,82,984.41,17.7,76,15.94,0.0,1010.39,311.6
2019-09-16 05:00,50.6304683333333,-96.9807783333333,0.9,1.6,80,984.37,17.0,80,15.93,0.0,1010.39,0.0
2019-09-16 05:10,50.6304666666667,-96.9807766666667,1.3,2.1,102,984.44,17.1,79,15.92,0.0,1010.52,0.0
2019-09-16 05:20,50.6304666666667,-96.980775,1.8,3.0,114,984.48,17.1,82,15.91,0.0,1010.55,0.0
2019-09-16 05:30,50.6304816666667,-96.980765,3.0,4.3,154,984.55,16.3,86,15.91,0.0,1010.67,0.0
2019-09-16 05:40,50.6304766666667,-96.9807716666667,3.2,4.5,165,984.57,15.6,90,15.89,0.0,1010.73,0.0
2019-09-16 05:50,50.6304733333333,-96.9807716666667,2.2,3.3,170,984.47,15.6,90,15.84,0.0,1010.64,0.0
2019-09-16 06:00,50.6304783333333,-96.9807783333333,1.9,2.4,165,984.44,15.6,94,15.81,0.0,1010.63,345.5
2019-09-16 06:10,50.6304733333333,-96.9807716666667,3.1,3.8,169,984.52,15.7,96,15.77,0.0,1010.69,345.5
2019-09-16 06:20,50.63047,-96.9807733333333,2.9,3.8,174,984.53,15.6,99,15.73,0.0,1010.71,345.5
2019-09-16 06:30,50.63047,-96.9807716666667,1.9,2.5,173,984.53,15.5,99,15.72,0.0,1010.68,345.5
2019-09-16 06:40,50.63047,-96.9807716666667,1.8,2.4,170,984.60,15.5,99,15.77,0.0,1010.77,345.5
2019-09-16 06:50,50.6304716666667,-96.9807683333333,1.2,2.4,176,984.64,15.5,99,15.77,0.0,1010.84,345.5
2019-09-16 07:00,50.6304733333333,-96.98077,0.9,2.2,155,984.68,15.5,99,15.78,0.0,1010.87,122.3
2019-09-16 07:10,50.630475,-96.9807833333333,1.8,2.7,135,984.64,15.8,97,15.75,0.0,1010.82,122.3
2019-09-16 07:20,50.6304733333333,-96.9807816666667,1.4,2.2,114,984.65,16.3,98,15.70,0.0,1010.84,122.3
2019-09-16 07:30,50.6304616666667,-96.9807783333333,2.2,2.9,124,984.66,16.4,98,15.73,0.0,1010.87,122.3
2019-09-16 07:40,50.6304666666667,-96.9807766666667,2.5,3.6,143,984.58,16.1,97,15.74,0.0,1010.81,122.3
2019-09-16 07:50,50.6304666666667,-96.980775,3.4,4.2,151,984.48,15.8,99,15.70,0.0,1010.72,122.3
2019-09-16 08:00,50.6304666666667,-96.9807683333333,2.4,3.4,153,984.48,15.5,100,15.75,0.0,1010.72,90.0
2019-09-16 08:10,50.6304666666667,-96.9807666666667,1.9,2.9,127,984.39,16.2,98,15.84,0.0,1010.61,90.0
2019-09-16 08:20,50.6304666666667,-96.9807666666667,2.5,3.6,100,984.33,16.4,99,15.85,0.0,1010.55,90.0
2019-09-16 08:30,50.6304666666667,-96.980765,4.2,5.2,137,984.19,16.1,96,15.84,0.0,1010.41,90.0
2019-09-16 08:40,50.6304666666667,-96.9807633333333,3.8,5.4,125,984.17,16.5,95,15.78,0.0,1010.37,90.0
2019-09-16 08:50,50.6304666666667,-96.980765,3.1,3.7,73,984.10,16.1,100,15.75,0.0,1010.32,90.0
2019-09-16 09:00,50.6304666666667,-96.980765,3.4,4.2,42,984.14,15.8,100,15.85,0.0,1010.36,130.6
2019-09-16 09:10,50.6304666666667,-96.9807666666667,2.5,3.6,54,984.11,15.8,100,15.87,0.0,1010.31,130.6
2019-09-16 09:20,50.6304666666667,-96.9807683333333,3.7,4.4,34,984.03,15.7,100,15.86,0.0,1010.23,130.6
2019-09-16 09:30,50.6304666666667,-96.9807683333333,3.7,4.3,64,983.95,15.8,100,15.85,0.0,1010.15,130.6
2019-09-16 09:40,50.6304666666667,-96.9807683333333,2.6,3.8,77,983.95,15.9,100,15.81,0.0,1010.16,130.6
2019-09-16 09:50,50.6304666666667,-96.9807683333333,2.4,3.8,106,983.98,16.1,99,15.76,0.0,1010.19,130.6
2019-09-16 10:00,50.6304583333333,-96.9807533333333,2.0,2.8,97,983.94,16.2,99,15.64,0.0,1010.11,147.5
2019-09-16 10:10,50.6304633333333,-96.9807616666667,2.4,3.9,113,983.88,16.2,99,15.55,0.0,1010.05,147.5
2019-09-16 10:20,50.6304633333333,-96.9807666666667,4.2,5.6,134,983.87,16.1,98,15.67,0.0,1010.06,147.5
2019-09-16 10:30,50.6304633333333,-96.9807666666667,5.5,6.3,141,983.83,15.8,98,15.70,0.0,1010.01,147.5
2019-09-16 10:40,50.6304633333333,-96.9807683333333,4.8,6.5,139,983.87,16.0,98,15.64,0.0,1010.06,147.5
2019-09-16 10:50,50.63046,-96.9807716666667,2.4,3.4,41,983.96,16.2,99,15.60,0.0,1010.16,147.5
2019-09-16 11:00,50.6304633333333,-96.9807733333333,3.8,5.6,109,983.98,16.3,99,15.57,0.0,1010.18,228.3
2019-09-16 11:10,50.6304633333333,-96.9807733333333,5.0,5.9,118,983.93,16.5,99,15.54,0.0,1010.12,228.3
2019-09-16 11:20,50.630465,-96.9807733333333,3.2,4.5,100,983.95,16.4,99,15.52,0.0,1010.14,228.3
2019-09-16 11:30,50.630465,-96.9807733333333,2.9,3.7,116,983.98,16.5,99,15.53,0.0,1010.16,228.3
2019-09-16 11:40,50.630465,-96.9807733333333,5.1,7.5,122,983.91,16.7,99,15.62,0.0,1010.06,228.3
2019-09-16 11:50,50.630465,-96.9807733333333,5.4,7.5,131,983.89,16.5,99,15.68,0.0,1010.06,228.3
2019-09-16 12:00,50.6304666666667,-96.9807733333333,5.2,6.4,130,983.96,16.4,99,15.76,0.0,1010.13,270.0
2019-09-16 12:10,50.6304666666667,-96.9807733333333,3.4,4.9,138,984.06,15.9,100,15.74,0.0,1010.26,270.0
2019-09-16 12:20,50.6304666666667,-96.9807733333333,1.8,3.8,123,984.11,16.2,100,15.73,0.0,1010.31,270.0
2019-09-16 12:30,50.6304666666667,-96.98077,1.6,3.7,117,984.15,16.6,99,15.71,0.0,1010.33,270.0
2019-09-16 12:40,50.63046,-96.980765,4.0,6.1,131,984.22,16.8,97,15.70,0.0,1010.38,270.0
2019-09-16 12:50,50.63046,-96.9807683333333,4.8,6.2,135,984.29,16.5,98,15.71,0.0,1010.46,270.0
2019-09-16 13:00,50.6304616666667,-96.9807716666667,3.4,5.0,126,984.29,17.0,96,15.71,0.0,1010.43,293.6
2019-09-16 13:10,50.6304616666667,-96.9807733333333,3.8,5.5,148,984.33,16.5,98,15.69,0.0,1010.50,293.6
2019-09-16 13:20,50.6304616666667,-96.9807733333333,4.7,6.7,136,984.32,16.5,97,15.69,0.0,1010.48,293.6
2019-09-16 13:30,50.6291316666667,-96.97107,7.3,12.0,125,984.26,17.5,92,15.60,2.3,1010.37,293.6
2019-09-16 13:40,50.6429683333333,-96.94065,11.5,15.4,92,984.11,16.8,99,15.46,8.5,1010.25,293.6
2019-09-16 13:50,50.646705,-96.9268616666667,7.3,15.8,107,984.14,17.1,98,15.46,3.4,1010.28,293.6
2019-09-16 14:00,50.661485,-96.8927083333333,11.2,15.7,76,983.97,16.8,99,15.41,9.4,1010.15,60.9
2019-09-16 14:10,50.6857266666667,-96.864475,14.2,16.2,69,983.96,16.6,99,15.44,10.8,1010.12,60.9
2019-09-16 14:20,50.71004,-96.8364466666667,13.8,16.5,65,983.97,16.9,99,15.62,10.8,1010.10,60.9
2019-09-16 14:30,50.734135,-96.8076233333333,14.4,16.6,63,983.94,16.9,99,15.82,10.9,1010.06,60.9
2019-09-16 14:40,50.7580833333333,-96.7786666666667,15.0,17.2,65,983.94,16.9,98,15.84,10.9,1010.08,60.9
2019-09-16 14:50,50.7822066666667,-96.7499466666667,15.6,19.2,64,983.92,16.8,98,15.83,10.9,1010.03,60.9
2019-09-16 15:00,50.7900333333333,-96.735705,14.4,20.3,101,984.03,17.0,96,15.83,4.3,1010.16,44.1
2019-09-16 15:10,50.7934016666667,-96.7350033333333,12.0,14.1,107,984.06,17.4,95,15.84,1.2,1010.18,44.1
2019-09-16 15:20,50.7940116666667,-96.735895,12.4,14.7,117,983.91,17.7,94,15.83,0.3,1009.96,44.1
2019-09-16 15:30,50.7929716666667,-96.7329,12.5,15.0,118,983.87,17.9,92,15.83,0.8,1009.94,44.1
2019-09-16 15:40,50.7929133333333,-96.728015,10.7,12.3,117,983.92,18.1,93,15.86,1.1,1009.97,44.1
2019-09-16 15:50,50.7938516666667,-96.7275216666667,12.0,13.2,120,983.76,18.7,91,15.92,0.4,1009.80,44.1
2019-09-16 16:00,50.8084816666667,-96.7197966666667,13.4,19.1,89,983.62,19.0,90,15.94,5.6,1009.65,42.8
2019-09-16 16:10,50.8370716666667,-96.70277,17.2,18.5,77,983.41,19.4,88,15.96,11.0,1009.40,42.8
2019-09-16 16:20,50.8653816666667,-96.6845133333333,15.5,18.0,72,983.39,19.1,90,16.00,11.0,1009.39,42.8
2019-09-16 16:30,50.89322,-96.6647733333333,14.0,15.3,61,983.42,18.2,96,15.96,11.0,1009.46,42.8
2019-09-16 16:40,50.9215416666667,-96.6463266666667,13.5,15.3,52,983.39,18.0,96,15.94,11.0,1009.45,42.8
2019-09-16 16:50,50.9498316666667,-96.6281883333333,14.7,16.0,63,983.35,19.0,88,15.89,11.0,1009.35,42.8
2019-09-16 17:00,50.9782,-96.6101933333333,15.0,17.0,66,983.23,20.0,79,15.93,11.0,1009.17,29.3
2019-09-16 17:10,50.9938966666667,-96.6027333333333,9.4,15.0,73,983.29,20.3,77,16.03,5.9,1009.20,29.3
2019-09-16 17:20,51.0009233333333,-96.5984816666667,8.4,9.3,105,983.25,21.1,71,16.20,2.7,1009.12,29.3
2019-09-16 17:30,51.0077083333333,-96.5941966666667,7.8,10.6,111,983.17,21.5,68,16.25,2.6,1009.00,29.3
2019-09-16 17:40,51.0153933333333,-96.5899433333333,7.9,10.7,98,983.07,21.4,68,16.41,2.9,1008.88,29.3
2019-09-16 17:50,51.02249,-96.583305,11.2,16.7,96,982.84,21.6,63,16.65,3.0,1008.62,29.3
2019-09-16 18:00,51.0223766666667,-96.5834316666667,10.5,12.9,106,982.64,21.7,62,16.80,0.1,1008.39,22.4
2019-09-16 18:10,51.0224466666667,-96.5833716666667,11.7,14.7,116,982.47,22.4,58,16.98,0.0,1008.20,22.4
2019-09-16 18:20,51.0224216666667,-96.5834233333333,11.3,12.8,114,982.38,22.6,58,16.96,0.0,1008.14,22.4
2019-09-16 18:30,51.0224533333333,-96.5833783333333,11.4,12.4,118,982.25,22.6,59,16.98,0.0,1008.02,22.4
2019-09-16 18:40,51.02244,-96.5834116666667,9.8,11.6,119,982.23,22.4,60,17.00,0.0,1007.96,22.4
2019-09-16 18:50,51.0224633333333,-96.5833833333333,10.9,12.5,121,982.08,22.7,58,17.03,0.0,1007.75,22.4
2019-09-16 19:00,51.0224666666667,-96.58335,9.0,11.1,113,982.02,22.9,58,17.12,0.0,1007.67,21.9
2019-09-16 19:10,51.0301466666667,-96.57483,10.4,16.8,94,981.83,22.9,58,17.22,3.4,1007.43,21.9
2019-09-16 19:20,51.0567233333333,-96.5498816666667,14.9,17.3,66,981.73,22.9,59,16.86,11.1,1007.32,21.9
2019-09-16 19:30,51.0831633333333,-96.5247066666667,15.5,17.3,70,981.67,24.0,53,16.94,11.1,1007.22,21.9
2019-09-16 19:40,51.1043433333333,-96.4898233333333,18.9,23.0,75,981.36,24.9,50,16.91,11.0,1006.84,21.9
2019-09-16 19:50,51.1200283333333,-96.4626,19.9,26.5,87,981.32,26.0,44,16.73,8.4,1006.75,21.9
2019-09-16 20:00,51.1249116666667,-96.4540283333333,12.4,14.7,101,981.71,26.4,44,16.58,2.6,1007.10,33.7
2019-09-16 20:10,51.1296333333333,-96.4453033333333,12.5,15.5,97,981.67,25.8,47,16.71,2.6,1007.08,33.7
2019-09-16 20:20,51.1343816666667,-96.436505,14.1,16.1,105,981.61,26.0,45,16.82,2.6,1007.01,33.7
2019-09-16 20:30,51.1411333333333,-96.42065,12.1,16.4,97,981.62,26.0,45,16.80,4.3,1007.02,33.7
2019-09-16 20:40,51.1412066666667,-96.4212616666667,12.6,16.1,93,981.60,26.3,42,16.82,0.1,1006.98,33.7
2019-09-16 20:50,51.141225,-96.4212083333333,13.7,16.0,100,981.39,27.7,39,16.88,0.0,1006.70,33.7
2019-09-16 21:00,51.1412616666667,-96.4211983333333,13.8,16.5,99,981.30,27.9,37,16.87,0.0,1006.60,40.5
2019-09-16 21:10,51.141255,-96.421185,14.4,17.7,106,981.24,28.0,37,16.85,0.0,1006.54,40.5
2019-09-16 21:20,51.1412433333333,-96.4211933333333,14.1,15.9,104,981.17,27.6,39,16.81,0.0,1006.44,40.5
2019-09-16 21:30,51.141215,-96.4212083333333,15.2,17.4,102,981.03,27.6,38,16.77,0.0,1006.24,40.5
2019-09-16 21:40,51.141235,-96.421235,14.3,17.9,104,981.01,27.9,38,16.76,0.0,1006.16,40.5
2019-09-16 21:50,51.1412483333333,-96.4211933333333,15.4,18.5,103,980.91,27.9,39,16.74,0.0,1006.05,40.5
2019-09-16 22:00,51.141235,-96.4211883333333,12.8,14.6,103,981.05,27.2,41,16.72,0.0,1006.25,40.6
2019-09-16 22:10,51.1411983333333,-96.4212316666667,14.4,16.8,101,981.01,27.4,40,16.71,0.0,1006.19,40.6
2019-09-16 22:20,51.1412066666667,-96.4212166666667,13.3,15.6,97,981.03,27.6,40,16.71,0.0,1006.20,40.6
2019-09-16 22:30,51.1410483333333,-96.420305,12.4,16.4,101,980.97,27.2,42,16.71,0.2,1006.15,40.6
2019-09-16 22:40,51.140855,-96.46488,2.8,16.9,125,981.19,27.1,43,16.78,10.1,1006.31,40.6
2019-09-16 22:50,51.1398533333333,-96.5131566666667,2.4,4.8,139,981.18,26.2,46,17.00,10.9,1006.33,40.6
2019-09-16 23:00,51.1381233333333,-96.5618,2.2,4.8,120,981.13,26.7,45,17.08,11.0,1006.25,281.1
2019-09-16 23:10,51.1369733333333,-96.5776566666667,7.7,10.7,104,981.06,24.8,53,17.26,3.6,1006.28,281.1
2019-09-16 23:20,51.1358333333333,-96.58871,10.9,12.5,102,980.95,24.1,52,17.39,2.5,1006.20,281.1
2019-09-16 23:30,51.134875,-96.5997933333333,11.5,12.5,102,980.90,24.8,50,17.55,2.5,1006.10,281.1
2019-09-16 23:40,51.1343933333333,-96.6184583333333,7.5,11.0,99,981.03,24.1,55,17.65,4.2,1006.27,281.1
